When you browse on this site, cookies collect data to enhance your experience and personalize the content and advertising you see.
Visit our Privacy Policy to learn more. By continuing to use the site, you agree to this use of cookies and data.
  • In United Kingdom
  • List of Countries
  • For 7 days
  • Water Temperature
  • Satellite Maps
  • Weather Map
  • Weather Widgets
  • user-avatar
    Login

    Hourly Weather Porto-Novo

    Today, 14 December, Friday

    Time Temperature Precipitation Wind Pressure Humidity
    00:00 +29°C° 0 mm 2 mps 759 mmHg 77%
    01:00 +28°C° 0 mm 1 mps 758 mmHg 79%
    02:00 +28°C° 0 mm 1 mps 758 mmHg 81%
    03:00 +28°C° 0 mm 1 mps 758 mmHg 83%
    04:00 +28°C° 0 mm 1 mps 758 mmHg 84%
    05:00 +27°C° 0 mm 1 mps 758 mmHg 86%
    06:00 +27°C° 0 mm 1 mps 759 mmHg 87%
    07:00 +30°C° 0 mm 1 mps 759 mmHg 76%
    08:00 +30°C° 0 mm 0 mps 759 mmHg 65%
    09:00 +33°C° 0 mm 0 mps 759 mmHg 55%
    10:00 +36°C° 0 mm 1 mps 758 mmHg 47%
    11:00 +37°C° 0 mm 1 mps 758 mmHg 40%
    12:00 +39°C° 0 mm 2 mps 758 mmHg 33%
    13:00 +39°C° 0 mm 3 mps 757 mmHg 38%
    14:00 +38°C° 0 mm 3 mps 757 mmHg 42%
    15:00 +37°C° 0 mm 4 mps 756 mmHg 46%
    16:00 +36°C° 0 mm 4 mps 757 mmHg 53%
    17:00 +34°C° 0 mm 5 mps 757 mmHg 61%
    18:00 +32°C° 0 mm 5 mps 757 mmHg 69%
    19:00 +32°C° 0 mm 4 mps 758 mmHg 72%
    20:00 +30°C° 0 mm 4 mps 758 mmHg 74%
    21:00 +30°C° 0 mm 4 mps 759 mmHg 77%
    22:00 +30°C° 0 mm 4 mps 759 mmHg 79%
    23:00 +29°C° 0 mm 4 mps 759 mmHg 81%

    Tomorrow, 15 December, Saturday

    Time Temperature Precipitation Wind Pressure Humidity
    00:00 +29°C° 0 mm 3 mps 759 mmHg 83%
    01:00 +29°C° 0 mm 3 mps 758 mmHg 84%
    02:00 +29°C° 0 mm 3 mps 758 mmHg 85%
    03:00 +28°C° 0 mm 3 mps 758 mmHg 86%
    04:00 +28°C° 0 mm 3 mps 758 mmHg 87%
    05:00 +28°C° 0 mm 2 mps 759 mmHg 87%
    06:00 +28°C° 0 mm 2 mps 759 mmHg 87%
    07:00 +29°C° 0 mm 2 mps 760 mmHg 80%
    08:00 +31°C° 0 mm 2 mps 760 mmHg 72%
    09:00 +32°C° 0 mm 2 mps 761 mmHg 65%
    10:00 +35°C° 0 mm 2 mps 760 mmHg 58%
    11:00 +37°C° 0 mm 2 mps 760 mmHg 51%
    12:00 +39°C° 0 mm 2 mps 759 mmHg 43%
    13:00 +39°C° 0 mm 2 mps 759 mmHg 43%
    14:00 +39°C° 0 mm 3 mps 758 mmHg 43%
    15:00 +38°C° 0 mm 3 mps 757 mmHg 42%
    16:00 +36°C° 0 mm 4 mps 757 mmHg 51%
    17:00 +34°C° 0 mm 4 mps 757 mmHg 60%
    18:00 +32°C° 0 mm 4 mps 757 mmHg 69%
    19:00 +32°C° 0 mm 4 mps 758 mmHg 72%
    20:00 +32°C° 0 mm 4 mps 758 mmHg 74%
    21:00 +30°C° 0 mm 4 mps 759 mmHg 77%
    22:00 +30°C° 0 mm 4 mps 759 mmHg 79%
    23:00 +30°C° 0 mm 4 mps 759 mmHg 80%

    Day after tomorrow, 16 December, Sunday

    Time Temperature Precipitation Wind Pressure Humidity
    00:00 +29°C° 0 mm 4 mps 759 mmHg 81%
    01:00 +29°C° 0 mm 3 mps 758 mmHg 82%
    02:00 +29°C° 0 mm 3 mps 758 mmHg 83%
    03:00 +29°C° 0 mm 3 mps 758 mmHg 84%
    04:00 +29°C° 0 mm 3 mps 758 mmHg 84%
    05:00 +29°C° 0 mm 3 mps 758 mmHg 84%
    06:00 +29°C° 0 mm 3 mps 758 mmHg 84%
    07:00 +30°C° 0 mm 3 mps 759 mmHg 78%
    08:00 +31°C° 0 mm 3 mps 759 mmHg 71%
    09:00 +33°C° 0 mm 3 mps 760 mmHg 65%
    10:00 +34°C° 0.1 mm 3 mps 759 mmHg 61%
    11:00 +35°C° 0.1 mm 3 mps 759 mmHg 57%
    12:00 +36°C° 0.1 mm 3 mps 758 mmHg 52%
    13:00 +37°C° 0 mm 3 mps 758 mmHg 51%
    14:00 +37°C° 0 mm 3 mps 757 mmHg 50%
    15:00 +37°C° 0 mm 4 mps 756 mmHg 48%
    16:00 +35°C° 0 mm 4 mps 757 mmHg 55%
    17:00 +34°C° 0 mm 4 mps 757 mmHg 62%
    18:00 +32°C° 0 mm 4 mps 757 mmHg 68%
    19:00 +32°C° 0 mm 4 mps 758 mmHg 72%
    20:00 +30°C° 0 mm 4 mps 759 mmHg 75%
    21:00 +30°C° 0 mm 4 mps 759 mmHg 78%
    22:00 +30°C° 0.1 mm 4 mps 759 mmHg 79%
    23:00 +30°C° 0.1 mm 4 mps 759 mmHg 80%

    17 December, Monday

    Time Temperature Precipitation Wind Pressure Humidity
    00:00 +29°C° 0.1 mm 4 mps 758 mmHg 82%
    01:00 +29°C° 0 mm 4 mps 758 mmHg 83%
    02:00 +29°C° 0 mm 3 mps 757 mmHg 85%
    03:00 +29°C° 0 mm 3 mps 757 mmHg 86%
    04:00 +29°C° 0 mm 3 mps 757 mmHg 86%
    05:00 +28°C° 0 mm 3 mps 757 mmHg 86%
    06:00 +28°C° 0 mm 3 mps 758 mmHg 86%
    07:00 +30°C° 0 mm 3 mps 758 mmHg 79%
    08:00 +31°C° 0 mm 2 mps 759 mmHg 72%
    09:00 +32°C° 0 mm 2 mps 759 mmHg 65%
    10:00 +34°C° 0.1 mm 2 mps 759 mmHg 60%
    11:00 +36°C° 0.1 mm 2 mps 758 mmHg 56%
    12:00 +37°C° 0.1 mm 3 mps 758 mmHg 51%
    13:00 +36°C° 0.9 mm 3 mps 757 mmHg 52%
    14:00 +36°C° 0.9 mm 3 mps 756 mmHg 53%
    15:00 +36°C° 0.9 mm 3 mps 756 mmHg 53%
    16:00 +34°C° 0.2 mm 3 mps 756 mmHg 59%
    17:00 +33°C° 0.2 mm 4 mps 756 mmHg 65%
    18:00 +32°C° 0.2 mm 4 mps 757 mmHg 71%
    19:00 +30°C° 0 mm 4 mps 757 mmHg 73%
    20:00 +30°C° 0 mm 4 mps 758 mmHg 75%
    21:00 +30°C° 0 mm 4 mps 759 mmHg 77%
    22:00 +29°C° 0 mm 3 mps 758 mmHg 79%
    23:00 +29°C° 0 mm 3 mps 758 mmHg 80%

    18 December, Tuesday

    Time Temperature Precipitation Wind Pressure Humidity
    00:00 +29°C° 0 mm 3 mps 758 mmHg 81%
    01:00 +29°C° 0 mm 3 mps 757 mmHg 82%
    02:00 +29°C° 0 mm 3 mps 757 mmHg 82%
    03:00 +29°C° 0 mm 3 mps 757 mmHg 83%
    04:00 +28°C° 0 mm 3 mps 757 mmHg 83%
    05:00 +28°C° 0 mm 3 mps 757 mmHg 83%
    06:00 +28°C° 0 mm 2 mps 758 mmHg 83%
    07:00 +30°C° 0 mm 2 mps 758 mmHg 75%
    08:00 +32°C° 0 mm 2 mps 759 mmHg 67%
    09:00 +34°C° 0 mm 2 mps 759 mmHg 58%
    10:00 +35°C° 0.6 mm 3 mps 759 mmHg 55%
    11:00 +36°C° 0.6 mm 3 mps 758 mmHg 53%
    12:00 +37°C° 0.6 mm 3 mps 758 mmHg 50%
    13:00 +36°C° 0.4 mm 3 mps 757 mmHg 52%
    14:00 +36°C° 0.4 mm 4 mps 757 mmHg 54%
    15:00 +35°C° 0.4 mm 4 mps 756 mmHg 56%
    16:00 +34°C° 0 mm 4 mps 756 mmHg 61%
    17:00 +33°C° 0 mm 4 mps 757 mmHg 66%
    18:00 +31°C° 0 mm 3 mps 757 mmHg 71%
    19:00 +30°C° 0 mm 3 mps 758 mmHg 73%
    20:00 +30°C° 0 mm 4 mps 758 mmHg 75%
    21:00 +30°C° 0 mm 4 mps 759 mmHg 78%
    22:00 +29°C° 0 mm 4 mps 758 mmHg 79%
    23:00 +29°C° 0 mm 4 mps 758 mmHg 81%

    19 December, Wednesday

    Time Temperature Precipitation Wind Pressure Humidity
    00:00 +29°C° 0 mm 4 mps 758 mmHg 82%
    01:00 +29°C° 0.7 mm 4 mps 758 mmHg 83%
    02:00 +28°C° 0.7 mm 4 mps 757 mmHg 85%
    03:00 +28°C° 0.7 mm 4 mps 757 mmHg 86%
    04:00 +28°C° 0.2 mm 3 mps 757 mmHg 86%
    05:00 +28°C° 0.2 mm 3 mps 758 mmHg 87%
    06:00 +28°C° 0.2 mm 3 mps 758 mmHg 87%
    07:00 +29°C° 0.1 mm 3 mps 758 mmHg 80%
    08:00 +31°C° 0.1 mm 3 mps 759 mmHg 72%
    09:00 +33°C° 0.1 mm 3 mps 759 mmHg 65%
    10:00 +35°C° 0.4 mm 3 mps 759 mmHg 60%
    11:00 +36°C° 0.4 mm 3 mps 758 mmHg 54%
    12:00 +37°C° 0.4 mm 3 mps 758 mmHg 49%
    13:00 +37°C° 0.1 mm 3 mps 757 mmHg 50%
    14:00 +36°C° 0.1 mm 3 mps 756 mmHg 50%
    15:00 +36°C° 0.1 mm 3 mps 756 mmHg 50%
    16:00 +34°C° 0.1 mm 4 mps 756 mmHg 56%
    17:00 +33°C° 0.1 mm 4 mps 756 mmHg 62%
    18:00 +32°C° 0.1 mm 4 mps 757 mmHg 68%
    19:00 +30°C° 0 mm 4 mps 757 mmHg 70%
    20:00 +30°C° 0 mm 4 mps 758 mmHg 72%
    21:00 +30°C° 0 mm 4 mps 758 mmHg 75%
    22:00 +29°C° 0 mm 3 mps 758 mmHg 77%
    23:00 +29°C° 0 mm 3 mps 758 mmHg 79%
    Show more